Location: *
(46.1006°N, 1.8394°E)
Time: 18:48:02
(UTC+00:00)

SL-16 R/B - Pass Details

Date: 20 September 2019
Orbit: 840 x 849 km, 71.0° (Epoch: 20 October)

Event Time Altitude Azimuth Distance (km) Brightness Sun altitude
Rises 19:43:19 0° 335° (NNW) 3,416 6.1 -19.1°
Reaches altitude 10° 19:45:49 10° 340° (NNW) 2,478 5.2 -19.5°
Maximum altitude 19:51:26 58° 59° (ENE) 986 2.3 -20.4°
Enters shadow 19:53:09 41° 115° (ESE) 1,209 2.5 -20.7°
